This is the latest recevied weather packets stored in our database for station/object W2JGA. If no packets are shown the sender has not sent any weather packets the latest 1 day(s).
| Time | Temp. | Humidity | Pressure | Rain* | Wind** | Luminosity | Snow |
|---|---|---|---|---|---|---|---|
| 1778088171 | 21.11° C | 41% | 1019 hPa | 0 mm | - | 744 W/m² | - |
| 1778086052 | 21.11° C | 44% | 1019 hPa | 0 mm | - | 615 W/m² | - |
| 1778085135 | 20° C | 48% | 1019 hPa | 0 mm | - | 540 W/m² | - |
| 1778083620 | 18.89° C | 52% | 1019 hPa | 0 mm | - | 481 W/m² | - |
| 1778080974 | 17.78° C | 56% | 1019 hPa | 0 mm | - | 60 W/m² | - |
| 1778080673 | 17.78° C | 56% | 1019 hPa | 0 mm | - | 50 W/m² | - |
| 1778080369 | 17.22° C | 57% | 1019 hPa | 0 mm | - | 59 W/m² | - |
| 1778079763 | 16.67° C | 59% | 1018.7 hPa | 0 mm | - | 232 W/m² | - |
| 1778079156 | 16.67° C | 59% | 1018.7 hPa | 0 mm | - | 46 W/m² | - |
| 1778078248 | 15.56° C | 61% | 1019 hPa | 0 mm | - | 137 W/m² | - |
| 1778077644 | 15.56° C | 62% | 1019 hPa | 0 mm | - | 105 W/m² | - |
| 1778074009 | 13.89° C | 67% | 1018.7 hPa | 0 mm | - | 30 W/m² | - |
| 1778072796 | 12.78° C | 70% | 1018.3 hPa | 0 mm | - | 20 W/m² | - |
| 1778071889 | 11.67° C | 74% | 1018.3 hPa | 0 mm | - | 11 W/m² | - |
| 1778071587 | 11.67° C | 74% | 1018.3 hPa | 0 mm | - | 8 W/m² | - |
| 1778070982 | 11.67° C | 74% | 1018.3 hPa | 0 mm | - | 2 W/m² | - |
| 1778068863 | 12.22° C | 72% | 1017.9 hPa | 0 mm | - | 0 W/m² | - |
| 1778066443 | 12.78° C | 73% | 1017.6 hPa | 0 mm | - | 0 W/m² | - |
| 1778066141 | 12.78° C | 73% | 1017.6 hPa | 0 mm | - | 0 W/m² | - |
| 1778065838 | 12.78° C | 73% | 1017.6 hPa | 0 mm | - | 0 W/m² | - |
| 1778065233 | 12.78° C | 73% | 1017.2 hPa | 0 mm | - | 0 W/m² | - |
| 1778064022 | 12.78° C | 75% | 1017.6 hPa | 0 mm | - | 0 W/m² | - |
| 1778063719 | 12.78° C | 75% | 1017.2 hPa | 0 mm | - | 0 W/m² | - |
| 1778063114 | 13.33° C | 74% | 1017.2 hPa | 0 mm | - | 0 W/m² | - |
| 1778062811 | 13.33° C | 73% | 1017.2 hPa | 0 mm | - | 0 W/m² | - |
* Rain latest hour (hover to see other rain measurements)
** Current wind speed in m/s (hover to see current wind gust speed)